Flag for Belgium Weather past 2 weeks in Kortrijk, Belgium

Now
63 °F

Partly sunny.


Feels Like: 63 °F
Forecast: 48 / 64 °F
Wind: 7 mph from Southwest

Location: Lille Airport

Current Time: Aug 22, 2014 at 6:41:30 PM

Latest Report: Aug 22, 2014 at 6:00 PM


Visibility: N/A

Pressure: 29.89 "Hg

Humidity: 77%

Dew point: 55 °F

Location of KortrijkLocation

Historic Weather in Kortrijk — Graph

°F

Kortrijk temperature yesterday

Maximum temperature yesterday: 66 °F (at 4:30 PM)
Minimum temperature yesterday: 48 °F (at 2:30 AM)
Average temperature yesterday: 57 °F

Past Weeks' High & Low Weather Summary

 TemperatureHumidityPressure
High77 °F (Aug 7, 6:00 PM)100% (Aug 13, 5:30 AM)30.15 "Hg (Aug 13, 5:30 AM)
Low46 °F (Aug 20, 5:00 AM)46% (Aug 19, 4:00 PM)29.50 "Hg (Aug 10, 3:30 PM)
Average61 °F78%29.87 "Hg
* Reported Aug 7 6:00 PM — Aug 22 6:00 PM, Kortrijk, Weather by CustomWeather, © 2014

Note: Actual official high and low records may vary slightly from our data, if they occured in-between our weather recording intervals... More about our weather records

Advertising

Kortrijk weather history for previous 24 hours

 ConditionsComfort  
Time TempWeatherWind HumidityBarometerVisibility
6:00 PM
Aug 22
63 °FPartly sunny.7 mph77%29.89 "HgN/A
5:30 PM61 °FScattered clouds.12 mph72%29.89 "HgN/A
5:00 PM63 °FScattered clouds.13 mph77%29.89 "HgN/A
4:30 PM63 °FScattered clouds.14 mph77%29.86 "HgN/A
4:00 PM61 °FPartly sunny.10 mph88%29.89 "HgN/A
3:30 PM57 °FLight rain. More clouds than sun.12 mph94%29.89 "Hg4 mi
3:00 PM59 °FLight rain. Partly sunny.12 mph88%29.89 "HgN/A
2:30 PM59 °FLight rain. Partly sunny.15 mph88%29.89 "HgN/A
2:00 PM61 °FLight rain. Partly sunny.10 mph77%29.89 "HgN/A
1:30 PM59 °FLight rain. Partly sunny.8 mph88%29.89 "HgN/A
1:00 PM59 °FLight rain. Partly sunny.12 mph77%29.89 "Hg2 mi
12:30 PM59 °FLight rain. Partly sunny.14 mph77%29.89 "HgN/A
12:00 PM61 °FLight rain. Broken clouds.10 mph72%29.89 "HgN/A
11:30 AM59 °FLight rain. Partly sunny.10 mph77%29.89 "HgN/A
11:00 AM57 °FLight rain. Clear.9 mph77%29.89 "HgN/A
10:30 AM57 °FLight rain. Clear.10 mph82%29.89 "HgN/A
10:00 AM57 °FPassing clouds.9 mph77%29.89 "HgN/A
9:30 AM55 °FSunny.7 mph82%29.89 "Hg10 mi
9:00 AM55 °FSunny.7 mph77%29.89 "Hg10 mi
8:30 AM55 °FPassing clouds.7 mph82%29.89 "HgN/A
8:00 AM54 °FSunny.7 mph82%29.89 "Hg10 mi
7:30 AM54 °FClear.8 mph82%29.89 "Hg10 mi
7:00 AM52 °FClear.7 mph88%29.89 "Hg10 mi
6:30 AM52 °FClear.6 mph82%29.89 "Hg10 mi
6:00 AM54 °FClear.7 mph82%29.89 "Hg10 mi
5:30 AM52 °FClear.3 mph88%29.89 "Hg10 mi
5:00 AM54 °FClear.5 mph82%29.92 "Hg10 mi
4:30 AM54 °FClear.2 mph82%29.92 "HgN/A
4:00 AM54 °FLight rain. Mostly cloudy.5 mph82%29.92 "HgN/A
3:30 AM54 °FClear.3 mph82%29.92 "HgN/A
3:00 AM52 °FClear.7 mph82%29.92 "HgN/A
2:30 AM52 °FClear.6 mph82%29.95 "HgN/A
2:00 AM52 °FClear.5 mph82%29.95 "Hg10 mi
1:30 AM52 °FClear.6 mph82%29.95 "Hg10 mi
1:00 AM54 °FClear.3 mph77%29.95 "Hg10 mi
12:30 AM54 °FClear.5 mph77%29.98 "Hg10 mi
12:00 AM54 °FClear.5 mph77%29.98 "Hg10 mi
11:30 PM
Aug 21
54 °FClear.6 mph77%29.98 "Hg10 mi
11:00 PM55 °FClear.6 mph77%29.98 "Hg10 mi
10:30 PM55 °FClear.5 mph77%29.98 "Hg10 mi
10:00 PM57 °FClear.5 mph72%29.98 "Hg10 mi
9:30 PM57 °FSunny.7 mph72%29.98 "Hg10 mi
9:00 PM59 °FSunny.7 mph63%29.98 "Hg10 mi
8:30 PM61 °FSunny.7 mph59%29.98 "Hg10 mi
8:00 PM63 °FSunny.12 mph56%29.98 "Hg10 mi
7:30 PM63 °FScattered clouds.13 mph56%29.98 "HgN/A
7:00 PM64 °FScattered clouds.18 mph49%29.98 "HgN/A
6:30 PM64 °FScattered clouds.15 mph52%29.98 "HgN/A
6:00 PM66 °FPassing clouds.16 mph46%29.98 "HgN/A
Weather by CustomWeather, © 2014

See weather overviewHow to use our weather pages